CAPE
0 0 0 0 0 0 0 0 0 0 0 0 0 0 0 0 0 0 0 0 0 0 0 0 0 0 0 0 0 0 0 0 0 0 0 0 0 0 0 0 0 0 0 0
0 0 0 0 0 0 0 0 0 0 0 0 0 0 0 0 0 0 0 0 0 0 0 0 0 0 0 0 0 0 0 0 0 0 0 0 0 0 0 0 0 0 0 0
0 0 0 0 0 0 0 0 0 0 0 0 0 0 0 0 0 0 0 0 0 0 0 0 0 0 0 0 0 0 0 0 0 0 0 0 0 0 0 0 0 0 0 0
0 0 0 0 0 0 0 0 0 0 0 0 0 0 0 0 0 0 0 0 0 0 0 0 0 0 0 0 0 0 0 0 0 0 0 0 0 0 0 0 0 0 0 0
0 0 0 0 0 0 0 0 0 0 0 0 0 0 0 0 0 0 0 0 0 0 0 0 0 0 0 0 0 0 0 0 0 0 0 0 0 0 0 0 0 0 0 0
0 0 0 0 0 0 0 0 0 0 0 0 0 0 0 0 0 0 0 0 0 0 0 0 0 0 0 0 0 0 0 0 0 0 0 0 0 0 0 0 0 0 0 1
0 0 0 0 0 0 0 0 0 0 0 0 0 0 0 0 0 0 0 0 0 0 0 0 0 0 0 0 0 0 0 0 0 0 0 0 0 0 0 0 0 2 3 1
0 0 0 0 0 0 0 0 0 0 0 0 0 0 0 0 0 0 0 0 0 0 0 0 0 0 0 0 0 0 0 0 0 0 0 0 0 0 0 0 0 0 1 2
0 0 0 0 0 0 0 0 0 0 0 0 0 0 0 0 0 0 0 0 0 0 0 0 0 0 0 0 0 0 0 0 0 0 0 0 0 0 0 0 0 0 0 0
0 0 0 0 0 0 0 0 0 0 0 0 0 0 0 0 0 0 0 0 0 0 0 0 0 0 0 0 0 0 0 0 0 0 0 0 0 0 0 0 0 0 0 0
0 0 0 0 0 0 0 0 0 0 0 0 0 0 0 0 0 0 0 0 0 0 0 0 0 0 0 0 0 0 0 0 0 0 0 0 0 0 0 0 0 0 0 0
0 0 0 0 0 0 0 0 0 0 0 0 0 0 0 0 0 0 0 0 0 0 0 0 0 0 0 0 0 0 0 0 0 0 0 0 0 0 1 0 0 0 0 1
0 0 0 0 0 0 0 0 0 0 0 0 0 0 0 0 0 0 0 0 0 0 0 0 0 0 0 0 0 0 0 0 0 0 0 0 0 0 1 0 0 0 1 1
0 0 0 0 0 0 0 0 0 0 0 0 0 0 0 0 0 0 0 0 0 0 0 0 0 0 0 0 0 0 0 0 0 0 0 1 1 1 0 0 0 0 1 0
0 0 0 0 0 0 0 0 0 0 0 0 0 0 0 0 0 0 0 0 0 0 0 0 0 0 0 0 0 0 0 0 0 0 0 1 1 0 1 0 0 1 0 0
0 0 0 0 0 0 0 0 0 0 0 0 0 0 0 0 0 0 0 0 0 0 0 0 0 0 0 0 0 0 0 0 0 0 0 0 0 0 1 1 0 1 1 1
0 0 0 0 0 0 0 0 0 0 0 0 0 0 0 0 0 0 0 0 0 0 0 0 0 0 0 0 0 0 0 0 0 0 0 0 0 0 0 0 1 0 0 0
0 0 0 0 0 0 0 0 0 0 0 0 0 0 0 0 0 0 0 0 0 0 0 0 0 0 0 0 0 0 0 0 0 0 0 0 0 0 0 0 1 1 1 1
0 0 0 0 0 0 0 0 0 0 0 0 0 0 0 0 0 0 0 0 0 0 0 0 0 0 0 0 0 0 0 0 0 0 0 0 0 0 0 0 0 0 1 0
0 0 0 0 0 0 0 0 0 0 0 0 0 0 0 0 0 0 0 0 0 0 0 0 0 0 0 0 0 0 0 0 0 0 0 0 0 0 0 0 0 0 0 0
0 0 0 0 0 0 0 0 0 0 0 0 0 0 0 0 0 0 0 0 0 0 0 0 0 0 0 0 0 0 0 0 0 0 0 0 0 0 0 0 0 0 0 0
0 0 0 0 0 0 0 0 0 0 0 0 0 0 0 0 0 0 0 0 0 0 0 0 0 0 0 0 0 0 0 0 0 0 0 0 0 0 0 0 0 0 0 0
0 0 0 0 0 0 0 0 0 0 0 0 0 0 0 0 0 0 0 0 0 0 0 0 0 0 0 0 0 0 0 0 0 0 0 0 0 0 0 0 0 0 0 0
0 0 0 0 0 0 0 0 0 0 0 0 0 0 0 0 0 0 0 0 0 0 0 0 0 0 0 0 0 0 0 0 0 0 0 0 0 0 0 0 0 0 0 0
0 0 0 0 0 0 0 0 0 0 0 0 0 0 0 0 0 0 0 0 0 0 0 0 0 0 0 0 0 0 0 0 0 0 0 0 0 0 0 0 0 0 0 0
0 0 0 0 0 0 0 0 0 0 0 0 0 0 0 0 0 0 0 0 0 0 0 0 0 0 0 0 0 0 0 0 0 0 0 0 0 0 0 0 0 0 0 0
CIN
0 0 0 0 0 0 0 0 0 0 0 0 0 0 0 0 0 0 0 0 0 0 0 0 0 0 0 0 0 0 0 0 0 0 0 0 0 0 0 0 0 0 0 0
0 0 0 0 0 0 0 0 0 0 0 0 0 0 0 0 0 0 0 0 0 0 0 0 0 0 0 0 0 0 0 0 0 0 0 0 0 0 0 0 0 0 0 0
0 0 0 0 0 0 0 0 0 0 0 0 0 0 0 0 0 0 0 0 0 0 0 0 0 0 0 0 0 0 0 0 0 0 0 0 0 0 0 0 0 0 0 0
0 0 0 0 0 0 0 0 0 0 0 0 0 0 0 0 0 0 0 0 0 0 0 0 0 0 0 0 0 0 0 0 0 0 0 0 0 0 0 0 0 0 0 0
0 0 0 0 0 0 0 0 0 0 0 0 0 0 0 0 0 0 0 0 0 0 0 0 0 0 0 0 0 0 0 0 0 0 0 0 0 0 0 0 0 0 0 0
0 0 0 0 0 0 0 0 0 0 0 0 0 0 0 0 0 0 0 0 0 0 0 0 0 0 0 0 0 0 0 0 0 0 0 0 0 0 0 0 0 0 0 0
0 0 0 0 0 0 0 0 0 0 0 0 0 0 0 0 0 0 0 0 0 0 0 0 0 0 0 0 0 0 0 0 0 0 0 0 0 0 0 0 0 0 0 0
0 0 0 0 0 0 0 0 0 0 0 0 0 0 0 0 0 0 0 0 0 0 0 0 0 0 0 0 0 0 0 0 0 0 0 0 0 0 0 0 0 0 0 0
0 0 0 0 0 0 0 0 0 0 0 0 0 0 0 0 0 0 0 0 0 0 0 0 0 0 0 0 0 0 0 0 0 0 0 0 0 0 0 0 0 0 0 0
0 0 0 0 0 0 0 0 0 0 0 0 0 0 0 0 0 0 0 0 0 0 0 0 0 0 0 0 0 0 0 0 0 0 0 0 0 0 0 0 0 0 0 0
0 0 0 0 0 0 0 0 0 0 0 0 0 0 0 0 0 0 0 0 0 0 0 0 0 0 0 0 0 0 0 0 0 0 0 0 0 0 0 0 0 0 0 0
0 0 0 0 0 0 0 0 0 0 0 0 0 0 0 0 0 0 0 0 0 0 0 0 0 0 0 0 0 0 0 0 0 0 0 0 0 0 0 0 0 0 0 0
0 0 0 0 0 0 0 0 0 0 0 0 0 0 0 0 0 0 0 0 0 0 0 0 0 0 0 0 0 0 0 0 0 0 0 0 0 0 0 0 0 0 0 0
0 0 0 0 0 0 0 0 0 0 0 0 0 0 0 0 0 0 0 0 0 0 0 0 0 0 0 0 0 0 0 0 0 0 0 0 0 0 0 0 0 0 0 0
0 0 0 0 0 0 0 0 0 0 0 0 0 0 0 0 0 0 0 0 0 0 0 0 0 0 0 0 0 0 0 0 0 0 0 0 0 0 0 0 0 0 0 0
0 0 0 0 0 0 0 0 0 0 0 0 0 0 0 0 0 0 0 0 0 0 0 0 0 0 0 0 0 0 0 0 0 0 0 0 0 0 0 0 0 0 0 0
0 0 0 0 0 0 0 0 0 0 0 0 0 0 0 0 0 0 0 0 0 0 0 0 0 0 0 0 0 0 0 0 0 0 0 0 0 0 0 0 0 0 0 0
0 0 0 0 0 0 0 0 0 0 0 0 0 0 0 0 0 0 0 0 0 0 0 0 0 0 0 0 0 0 0 0 0 0 0 0 0 0 0 0 0 0 0 0
0 0 0 0 0 0 0 0 0 0 0 0 0 0 0 0 0 0 0 0 0 0 0 0 0 0 0 0 0 0 0 0 0 0 0 0 0 0 0 0 0 0 0 0
0 0 0 0 0 0 0 0 0 0 0 0 0 0 0 0 0 0 0 0 0 0 0 0 0 0 0 0 0 0 0 0 0 0 0 0 0 0 0 0 0 0 0 0
0 0 0 0 0 0 0 0 0 0 0 0 0 0 0 0 0 0 0 0 0 0 0 0 0 0 0 0 0 0 0 0 0 0 0 0 0 0 0 0 0 0 0 0
0 0 0 0 0 0 0 0 0 0 0 0 0 0 0 0 0 0 0 0 0 0 0 0 0 0 0 0 0 0 0 0 0 0 0 0 0 0 0 0 0 0 0 0
0 0 0 0 0 0 0 0 0 0 0 0 0 0 0 0 0 0 0 0 0 0 0 0 0 0 0 0 0 0 0 0 0 0 0 0 0 0 0 0 0 0 0 0
0 0 0 0 0 0 0 0 0 0 0 0 0 0 0 0 0 0 0 0 0 0 0 0 0 0 0 0 0 0 0 0 0 0 0 0 0 0 0 0 0 0 0 0
0 0 0 0 0 0 0 0 0 0 0 0 0 0 0 0 0 0 0 0 0 0 0 0 0 0 0 0 0 0 0 0 0 0 0 0 0 0 0 0 0 0 0 0
0 0 0 0 0 0 0 0 0 0 0 0 0 0 0 0 0 0 0 0 0 0 0 0 0 0 0 0 0 0 0 0 0 0 0 0 0 0 0 0 0 0 0 0
Wind_Speed
17 16 14 16 16 16 16 16 14 15 18 21 15 13 10 29 18 11 7 8 11 13 13 15 18 18 17 18 19 21 22 24 24 23 24 20 22 24 18 19 20 21 22 23
17 17 15 14 14 14 14 15 16 12 15 21 21 12 25 21 18 16 14 14 14 15 13 15 16 17 16 18 19 20 23 23 22 21 20 14 14 15 19 19 20 19 20 23
16 14 13 13 13 13 13 14 16 16 16 18 22 19 20 18 17 16 16 16 16 15 15 16 17 17 15 17 19 20 22 21 20 21 18 14 16 14 16 19 18 19 20 22
17 14 11 12 12 13 16 14 15 18 22 20 23 17 18 17 16 16 18 17 15 15 13 15 17 18 16 17 19 20 21 20 19 18 17 15 15 14 13 20 21 20 19 20
14 11 11 12 13 14 15 16 17 18 18 19 19 17 15 17 14 16 18 19 20 18 15 15 17 18 18 18 19 20 20 19 18 17 16 15 14 13 12 18 20 19 19 19
15 15 14 14 15 15 13 15 18 18 18 17 18 18 15 16 14 15 16 19 19 19 16 15 17 19 18 17 19 19 20 19 17 17 14 14 14 14 14 19 19 19 18 17
16 15 15 14 14 15 14 17 22 20 20 19 18 19 11 14 12 13 16 16 17 18 18 15 16 18 18 17 17 19 19 19 17 16 14 14 15 15 11 11 12 16 16 17
13 18 12 14 13 14 12 15 17 22 21 21 20 15 16 14 13 14 13 12 15 18 17 15 15 18 18 18 17 18 19 18 18 17 17 16 15 13 13 11 12 14 15 17
14 17 15 14 14 13 13 14 15 18 19 20 18 17 16 12 8 12 12 15 16 18 17 16 16 17 18 19 17 17 18 18 17 17 17 17 18 16 14 11 11 13 14 15
13 17 14 14 14 15 14 12 17 17 20 20 19 19 14 12 8 12 15 17 19 20 17 15 14 15 17 18 18 17 17 18 16 15 15 16 17 15 12 11 10 11 12 12
13 16 15 15 11 9 13 14 15 16 16 18 22 19 14 11 8 9 15 20 21 21 18 13 12 13 15 17 18 17 17 18 17 16 15 15 13 14 13 12 12 11 11 10
15 15 16 17 16 16 16 14 12 15 16 18 19 23 17 13 12 8 16 20 22 22 20 13 10 12 13 16 17 18 16 16 17 16 17 17 16 15 14 12 12 13 11 10
16 18 18 20 19 18 14 12 12 14 17 16 18 18 16 17 11 10 17 23 24 17 20 12 9 9 11 14 16 18 18 16 16 16 19 19 18 15 15 14 13 12 13 10
17 21 21 19 19 13 13 8 6 11 14 17 13 12 15 15 14 12 12 22 21 18 23 12 6 8 10 13 15 17 18 18 17 17 18 20 20 19 17 9 9 9 12 8
22 27 23 23 20 18 15 10 5 8 13 16 15 10 8 13 17 31 23 20 25 23 24 14 5 7 9 12 15 17 18 20 20 19 19 20 20 21 22 21 11 6 5 5
25 29 24 26 25 23 19 18 10 14 18 9 9 12 15 8 14 18 26 24 31 23 19 16 7 8 9 11 14 16 18 19 21 22 21 20 22 22 23 24 25 22 1 2
26 25 25 29 27 26 32 15 16 20 19 11 7 7 14 12 13 22 28 24 30 29 15 10 6 9 10 10 13 15 17 19 21 22 23 24 22 22 23 24 25 26 27 27
28 30 30 31 26 31 29 24 22 15 21 9 10 9 8 12 21 24 18 26 25 24 16 8 7 9 9 9 10 13 16 18 20 21 22 24 25 25 22 22 23 22 22 23
30 29 32 33 30 36 25 21 17 15 28 15 10 9 10 12 19 20 15 14 20 22 16 9 6 7 9 9 9 10 13 15 17 19 20 22 23 24 25 25 22 18 17 16
30 30 32 28 33 34 25 24 20 18 37 16 8 12 10 10 11 13 14 20 21 21 12 9 6 5 7 7 8 9 10 11 13 15 17 18 19 20 21 21 22 22 22 8
34 34 37 36 35 33 23 16 12 22 24 15 11 11 8 9 11 14 17 20 20 17 11 8 4 5 6 7 7 7 8 9 9 11 13 14 15 16 17 17 18 18 17 16
36 36 39 36 39 46 18 17 23 22 17 13 12 10 8 9 12 15 15 16 18 14 9 6 3 4 3 5 6 5 6 6 7 8 9 11 11 13 13 14 14 14 14 14
41 35 35 32 36 25 16 21 20 17 15 13 11 10 10 9 9 12 15 16 17 14 8 6 3 3 5 5 5 5 4 4 5 6 7 8 9 10 11 11 12 12 13 13
39 34 36 34 37 32 27 27 22 19 17 15 16 12 10 11 7 11 15 17 16 15 10 6 3 3 3 6 6 3 5 5 5 5 5 6 7 8 10 11 11 12 12 13
34 30 37 40 37 32 34 29 26 24 23 22 19 14 12 9 7 11 14 16 16 15 11 7 3 3 3 1 2 2 3 4 4 4 4 5 6 7 9 10 11 12 14 14
34 32 32 39 33 34 33 28 26 25 25 22 18 12 12 11 13 16 16 16 14 14 12 9 6 5 5 3 1 1 2 2 2 2 2 3 4 6 7 9 12 14 14 14
Wind_Direction
322 321 336 336 340 347 352 356 360 2 359 350 355 340 275 327 337 342 358 12 17 22 38 36 32 33 33 28 24 18 14 11 11 12 6 11 347 303 313 300 293 284 272 265
318 317 337 348 352 1 4 359 1 11 15 355 351 274 343 349 355 8 19 18 21 25 37 35 33 34 33 28 25 23 18 19 22 22 21 38 32 3 297 296 296 293 277 265
312 330 344 353 358 359 3 2 1 3 6 4 359 360 1 3 2 11 18 15 19 25 31 34 33 33 35 30 28 27 24 28 33 33 41 65 51 20 303 299 307 302 280 267
315 327 349 353 356 2 351 9 8 2 360 359 4 6 4 2 3 8 8 9 17 24 41 38 34 32 36 34 33 32 31 36 42 46 54 71 78 107 66 304 296 289 283 269
322 345 349 345 351 355 356 3 3 3 2 2 12 14 18 9 17 10 8 7 11 19 41 41 37 35 40 40 37 36 38 42 51 55 65 78 102 96 81 339 297 288 277 270
318 324 334 341 343 350 6 2 0 3 5 5 11 15 16 14 16 16 16 11 15 18 39 47 42 39 43 45 41 41 42 47 56 61 79 88 98 83 71 323 294 286 265 263
306 315 327 334 342 345 357 355 346 351 356 357 6 1 17 14 31 30 15 21 21 20 28 46 43 41 43 48 47 47 48 53 61 68 84 90 89 85 122 205 220 269 254 260
293 306 319 328 336 345 354 353 348 342 346 347 350 4 14 21 29 22 25 40 27 17 23 42 46 43 47 52 55 54 54 59 64 70 71 83 94 111 113 170 189 205 230 261
290 302 318 330 336 345 353 349 356 349 350 347 351 354 353 357 38 32 35 24 19 12 18 34 45 47 49 53 59 61 61 64 70 75 74 75 78 95 141 166 212 198 237 256
288 300 308 318 329 332 342 357 347 350 342 343 344 345 352 10 45 26 20 13 11 5 13 28 43 53 52 57 62 68 70 69 74 79 83 85 80 105 160 176 180 213 219 237
278 292 302 308 315 334 340 341 345 348 346 341 338 346 0 2 21 28 10 360 2 1 5 25 43 59 59 59 64 71 76 75 78 79 87 93 110 127 161 178 178 220 234 232
263 288 290 298 311 318 324 334 341 338 340 336 337 334 345 346 348 19 354 352 356 355 353 15 46 61 68 63 66 71 81 83 83 84 89 96 110 131 151 169 169 165 205 208
248 275 281 294 305 307 315 321 330 340 333 330 333 339 352 351 358 1 344 342 347 1 347 13 43 77 78 73 70 74 79 90 92 91 90 98 106 130 138 153 169 176 179 185
256 269 272 272 299 312 310 312 315 325 335 329 319 314 321 326 336 319 298 335 344 358 334 4 57 91 87 82 78 76 80 87 96 100 97 100 106 116 131 175 188 194 193 205
261 264 268 281 289 297 306 306 278 293 318 324 332 316 308 332 331 268 331 343 326 339 328 347 55 103 94 88 85 79 82 84 91 101 103 102 110 117 117 119 157 256 241 224
261 267 267 271 282 288 293 294 286 297 310 285 308 255 326 246 336 335 324 329 287 334 340 338 31 121 112 97 95 84 83 88 86 90 100 109 111 116 121 118 116 132 190 299
257 262 265 269 277 285 281 258 279 294 303 309 292 292 334 336 332 326 313 327 303 303 345 354 36 128 118 100 95 92 86 83 85 85 88 98 112 118 122 125 123 123 126 134
259 259 265 270 273 269 281 287 280 279 296 264 298 277 308 330 325 317 327 313 317 322 341 13 27 119 117 93 85 83 84 82 82 83 86 86 91 106 125 132 135 139 142 144
259 257 263 263 265 272 283 279 284 293 296 302 261 254 323 337 331 323 339 345 335 325 333 4 40 105 111 104 90 81 81 78 76 82 81 82 79 82 93 110 134 157 163 168
255 258 258 268 264 266 279 271 284 296 286 314 329 338 355 11 9 342 338 327 329 329 341 350 50 78 103 105 95 86 80 74 78 75 76 73 68 66 67 75 78 110 111 213
248 252 249 256 266 272 278 269 276 287 298 312 326 335 2 6 5 344 338 326 326 331 341 350 42 92 109 109 103 93 85 83 66 64 61 63 61 57 56 54 57 59 49 45
245 245 250 256 260 262 259 255 271 291 299 312 320 325 337 353 350 344 350 344 336 344 340 353 18 69 83 108 107 92 93 59 60 58 53 54 47 46 42 40 39 39 37 31
248 249 243 245 258 273 232 268 275 282 294 299 311 323 330 340 354 353 349 348 331 342 349 348 1 52 96 118 116 104 82 61 53 52 36 33 33 22 29 27 21 14 19 19
251 251 251 253 257 258 252 264 270 273 281 292 300 304 306 316 340 343 343 340 332 329 340 353 13 64 103 124 126 82 84 91 82 56 41 28 30 21 10 3 0 355 355 352
252 244 247 254 258 258 257 259 266 267 272 283 289 293 285 298 315 323 327 330 331 325 329 335 348 338 340 21 115 79 60 88 88 65 49 36 17 6 1 356 352 346 344 343
243 246 238 252 253 258 264 262 259 262 267 271 279 280 275 285 298 306 308 314 319 323 326 322 324 325 331 332 350 102 90 90 78 64 44 23 7 5 3 349 339 338 338 338